When you browse on this site, cookies collect data to enhance your experience and personalize the content and advertising you see.
Visit our Privacy Policy to learn more. By continuing to use the site, you agree to this use of cookies and data.
  • In Switzerland
  • List of Countries
  • For 7 days
  • Water Temperature
  • Weather Map
  • Weather Widgets
  • user-avatar
    Login

    Hourly Weather Sankt Polten

    Today, 5 April, Sunday

    Time Temperature Precipitation Wind Pressure Humidity
    00:00 +5°C° 0 mm 1 mps 743 mmHg 82%
    01:00 +5°C° 0 mm 1 mps 744 mmHg 82%
    02:00 +4°C° 0 mm 1 mps 744 mmHg 81%
    03:00 +4°C° 0 mm 1 mps 743 mmHg 81%
    04:00 +4°C° 0 mm 1 mps 743 mmHg 81%
    05:00 +5°C° 0 mm 1 mps 744 mmHg 78%
    06:00 +4°C° 0 mm 2 mps 744 mmHg 74%
    07:00 +5°C° 0 mm 2 mps 744 mmHg 69%
    08:00 +8°C° 0 mm 3 mps 744 mmHg 61%
    09:00 +10°C° 0 mm 3 mps 744 mmHg 54%
    10:00 +12°C° 0 mm 4 mps 744 mmHg 47%
    11:00 +13°C° 0 mm 4 mps 744 mmHg 44%
    12:00 +14°C° 0 mm 5 mps 744 mmHg 41%
    13:00 +15°C° 0 mm 5 mps 743 mmHg 36%
    14:00 +15°C° 0 mm 5 mps 743 mmHg 38%
    15:00 +15°C° 0 mm 5 mps 742 mmHg 39%
    16:00 +15°C° 0 mm 5 mps 742 mmHg 41%
    17:00 +13°C° 0 mm 4 mps 742 mmHg 47%
    18:00 +11°C° 0 mm 4 mps 742 mmHg 53%
    19:00 +9°C° 0 mm 3 mps 743 mmHg 59%
    20:00 +8°C° 0 mm 3 mps 743 mmHg 62%
    21:00 +7°C° 0 mm 3 mps 743 mmHg 65%
    22:00 +7°C° 0 mm 3 mps 743 mmHg 68%
    23:00 +5°C° 0 mm 3 mps 743 mmHg 70%

    Tomorrow, 6 April, Monday

    Time Temperature Precipitation Wind Pressure Humidity
    00:00 +5°C° 0 mm 3 mps 743 mmHg 72%
    01:00 +5°C° 0 mm 3 mps 743 mmHg 74%
    02:00 +5°C° 0 mm 3 mps 743 mmHg 77%
    03:00 +5°C° 0 mm 3 mps 743 mmHg 80%
    04:00 +4°C° 0 mm 3 mps 743 mmHg 83%
    05:00 +6°C° 0 mm 2 mps 743 mmHg 81%
    06:00 +7°C° 0 mm 2 mps 744 mmHg 79%
    07:00 +8°C° 0 mm 2 mps 744 mmHg 77%
    08:00 +10°C° 0 mm 2 mps 744 mmHg 67%
    09:00 +14°C° 0 mm 2 mps 744 mmHg 58%
    10:00 +16°C° 0 mm 2 mps 744 mmHg 49%
    11:00 +17°C° 0 mm 3 mps 744 mmHg 46%
    12:00 +18°C° 0 mm 3 mps 744 mmHg 43%
    13:00 +19°C° 0 mm 4 mps 744 mmHg 39%
    14:00 +19°C° 0 mm 4 mps 744 mmHg 40%
    15:00 +18°C° 0 mm 4 mps 744 mmHg 42%
    16:00 +18°C° 0 mm 4 mps 744 mmHg 43%
    17:00 +15°C° 0 mm 4 mps 744 mmHg 50%
    18:00 +12°C° 0 mm 3 mps 744 mmHg 56%
    19:00 +10°C° 0 mm 3 mps 744 mmHg 63%
    20:00 +9°C° 0 mm 2 mps 745 mmHg 65%
    21:00 +8°C° 0 mm 2 mps 745 mmHg 67%
    22:00 +7°C° 0 mm 2 mps 746 mmHg 69%
    23:00 +7°C° 0 mm 2 mps 746 mmHg 70%

    Day after tomorrow, 7 April, Tuesday

    Time Temperature Precipitation Wind Pressure Humidity
    00:00 +6°C° 0 mm 2 mps 746 mmHg 71%
    01:00 +7°C° 0 mm 1 mps 746 mmHg 72%
    02:00 +6°C° 0 mm 1 mps 747 mmHg 72%
    03:00 +6°C° 0 mm 1 mps 747 mmHg 72%
    04:00 +5°C° 0 mm 1 mps 747 mmHg 72%
    05:00 +6°C° 0 mm 1 mps 747 mmHg 67%
    06:00 +7°C° 0 mm 1 mps 747 mmHg 62%
    07:00 +8°C° 0 mm 1 mps 747 mmHg 58%
    08:00 +11°C° 0 mm 1 mps 747 mmHg 51%
    09:00 +13°C° 0 mm 1 mps 747 mmHg 43%
    10:00 +16°C° 0 mm 1 mps 747 mmHg 36%
    11:00 +18°C° 0 mm 1 mps 747 mmHg 34%
    12:00 +18°C° 0 mm 2 mps 747 mmHg 31%
    13:00 +19°C° 0 mm 2 mps 747 mmHg 29%
    14:00 +19°C° 0 mm 2 mps 746 mmHg 30%
    15:00 +19°C° 0 mm 2 mps 746 mmHg 30%
    16:00 +19°C° 0 mm 3 mps 746 mmHg 31%
    17:00 +16°C° 0 mm 2 mps 746 mmHg 37%
    18:00 +13°C° 0 mm 2 mps 746 mmHg 43%
    19:00 +10°C° 0 mm 2 mps 745 mmHg 50%
    20:00 +8°C° 0 mm 2 mps 746 mmHg 52%
    21:00 +7°C° 0 mm 2 mps 746 mmHg 54%
    22:00 +6°C° 0 mm 2 mps 746 mmHg 56%
    23:00 +6°C° 0 mm 2 mps 746 mmHg 57%

    8 April, Wednesday

    Time Temperature Precipitation Wind Pressure Humidity
    00:00 +5°C° 0 mm 2 mps 746 mmHg 58%
    01:00 +5°C° 0 mm 1 mps 746 mmHg 59%
    02:00 +5°C° 0 mm 1 mps 746 mmHg 60%
    03:00 +5°C° 0 mm 1 mps 746 mmHg 61%
    04:00 +4°C° 0 mm 1 mps 746 mmHg 61%
    05:00 +5°C° 0 mm 1 mps 745 mmHg 58%
    06:00 +6°C° 0 mm 1 mps 745 mmHg 55%
    07:00 +7°C° 0 mm 1 mps 745 mmHg 53%
    08:00 +10°C° 0 mm 1 mps 745 mmHg 46%
    09:00 +13°C° 0 mm 1 mps 744 mmHg 39%
    10:00 +16°C° 0 mm 1 mps 744 mmHg 32%
    11:00 +18°C° 0 mm 1 mps 744 mmHg 31%
    12:00 +20°C° 0 mm 1 mps 743 mmHg 29%
    13:00 +21°C° 0 mm 1 mps 743 mmHg 27%
    14:00 +21°C° 0 mm 1 mps 742 mmHg 29%
    15:00 +21°C° 0 mm 1 mps 742 mmHg 31%
    16:00 +19°C° 0 mm 2 mps 742 mmHg 32%
    17:00 +17°C° 0 mm 2 mps 741 mmHg 40%
    18:00 +14°C° 0 mm 2 mps 741 mmHg 48%
    19:00 +12°C° 0 mm 2 mps 741 mmHg 56%
    20:00 +10°C° 0 mm 2 mps 741 mmHg 58%
    21:00 +10°C° 0 mm 1 mps 741 mmHg 60%
    22:00 +9°C° 0 mm 1 mps 742 mmHg 63%
    23:00 +8°C° 0 mm 1 mps 741 mmHg 64%

    9 April, Thursday

    Time Temperature Precipitation Wind Pressure Humidity
    00:00 +8°C° 0 mm 1 mps 741 mmHg 66%
    01:00 +7°C° 0 mm 1 mps 741 mmHg 67%
    02:00 +7°C° 0 mm 1 mps 741 mmHg 68%
    03:00 +7°C° 0 mm 1 mps 741 mmHg 68%
    04:00 +7°C° 0 mm 1 mps 741 mmHg 69%
    05:00 +8°C° 0 mm 1 mps 741 mmHg 66%
    06:00 +9°C° 0 mm 1 mps 741 mmHg 64%
    07:00 +10°C° 0 mm 1 mps 741 mmHg 61%
    08:00 +13°C° 0 mm 1 mps 741 mmHg 55%
    09:00 +15°C° 0 mm 1 mps 740 mmHg 50%
    10:00 +17°C° 0 mm 2 mps 740 mmHg 44%
    11:00 +18°C° 0 mm 2 mps 740 mmHg 43%
    12:00 +19°C° 0 mm 2 mps 740 mmHg 41%
    13:00 +20°C° 0 mm 2 mps 740 mmHg 39%
    14:00 +20°C° 0 mm 2 mps 739 mmHg 41%
    15:00 +20°C° 0 mm 2 mps 739 mmHg 44%
    16:00 +20°C° 0 mm 2 mps 739 mmHg 46%
    17:00 +18°C° 0 mm 2 mps 739 mmHg 54%
    18:00 +16°C° 0 mm 1 mps 739 mmHg 63%
    19:00 +14°C° 0 mm 1 mps 739 mmHg 72%
    20:00 +13°C° 0 mm 1 mps 739 mmHg 72%
    21:00 +13°C° 0 mm 1 mps 739 mmHg 73%
    22:00 +13°C° 0 mm 1 mps 740 mmHg 73%
    23:00 +12°C° 0 mm 1 mps 740 mmHg 74%

    10 April, Friday

    Time Temperature Precipitation Wind Pressure Humidity
    00:00 +12°C° 0 mm 1 mps 740 mmHg 75%
    01:00 +11°C° 0 mm 1 mps 740 mmHg 75%
    02:00 +11°C° 0 mm 1 mps 740 mmHg 77%
    03:00 +10°C° 0 mm 1 mps 740 mmHg 80%
    04:00 +10°C° 0 mm 1 mps 740 mmHg 82%
    05:00 +11°C° 0 mm 1 mps 741 mmHg 80%
    06:00 +10°C° 0 mm 0 mps 741 mmHg 79%
    07:00 +11°C° 0 mm 0 mps 741 mmHg 77%
    08:00 +14°C° 0 mm 1 mps 741 mmHg 71%
    09:00 +15°C° 0 mm 1 mps 741 mmHg 64%
    10:00 +18°C° 0 mm 1 mps 741 mmHg 58%
    11:00 +18°C° 0 mm 1 mps 741 mmHg 56%
    12:00 +18°C° 0 mm 2 mps 741 mmHg 54%
    13:00 +19°C° 0 mm 2 mps 741 mmHg 52%
    14:00 +19°C° 0 mm 2 mps 740 mmHg 52%
    15:00 +19°C° 0 mm 2 mps 740 mmHg 53%
    16:00 +18°C° 0 mm 2 mps 740 mmHg 53%
    17:00 +16°C° 0 mm 2 mps 740 mmHg 62%
    18:00 +14°C° 0 mm 1 mps 739 mmHg 70%
    19:00 +12°C° 0 mm 1 mps 739 mmHg 79%
    20:00 +12°C° 0 mm 1 mps 740 mmHg 80%
    21:00 +11°C° 0 mm 1 mps 740 mmHg 82%
    22:00 +11°C° 0 mm 1 mps 740 mmHg 83%
    23:00 +10°C° 0 mm 1 mps 740 mmHg 84%
    Show more